User: anonymous   Login
Location: Alt?nova Orta
(36.9295°N, 30.7847°E)
Time: 17:24:11
(UTC+00:00)
Language:

Cosmos 1743 Rocket - Orbit

View from above orbital plane
View from above orbital plane
View from above satellite
View from above satellite

Ground track
Ground track

The orbit data is extracted from the following two-line orbital elements,

1 16720U 86034B   20151.95985304  .00000077  00000-0  63461-5 0  9998
2 16720  82.5523 315.6574 0021191 139.0878 336.7372 14.83394572839180
Epoch (UTC): 30 May 2020 23:02:11
Eccentricity: 0.0021191
inclination: 82.5523°
perigee height: 604 km
apogee height: 633 km
right ascension of ascending node: 315.6574°
argument of perigee: 139.0878°
revolutions per day: 14.83394572
mean anomaly at epoch: 336.7372°
orbit number at epoch: 83918

The dashed part of the orbit path shows where the satellite is in the earth's shadow,  

DLR